Location: Unspecified
(50.7693°N, 0.0000°E)
Time: 21:08:35
(UTC+00:00)

Vanguard 1 Rocket - Pass Details

Date: 28 June 2019
Orbit: 651 x 4225 km, 34.3° (Epoch: 15 July)

Event Time Altitude Azimuth Distance (km) Brightness Sun altitude
Rises 15:03:12 0° 224° (SW) 8,421 13.0 45.8°
Reaches altitude 10° 15:10:11 10° 217° (SW) 7,188 12.7 44.8°
Maximum altitude 15:28:59 34° 164° (SSE) 4,214 11.1 41.9°
Drops below altitude 10° 15:40:50 10° 106° (ESE) 4,592 10.7 40.1°
Sets 15:44:05 0° 96° (E) 5,177 10.8 39.6°
